Year,Month,Day,Hour,Minute,Value (Times are PST for temperature in C)
2012,07,17,00,00,19.60
2012,07,17,00,01,19.60
2012,07,17,00,02,19.60
2012,07,17,00,03,19.60
2012,07,17,00,04,19.50
2012,07,17,00,05,19.50
2012,07,17,00,06,19.50
2012,07,17,00,07,19.50
2012,07,17,00,08,19.40
2012,07,17,00,09,19.50
2012,07,17,00,10,19.50
2012,07,17,00,11,19.50
2012,07,17,00,12,19.50
2012,07,17,00,13,19.50
2012,07,17,00,14,19.60
2012,07,17,00,15,19.60
2012,07,17,00,16,19.60
2012,07,17,00,17,19.60
2012,07,17,00,18,19.60
2012,07,17,00,19,19.60
2012,07,17,00,20,19.60
2012,07,17,00,21,19.60
2012,07,17,00,22,19.60
2012,07,17,00,23,19.60
2012,07,17,00,24,19.60
2012,07,17,00,25,19.60
2012,07,17,00,26,19.60
2012,07,17,00,27,19.60
2012,07,17,00,28,19.60
2012,07,17,00,29,19.60
2012,07,17,00,30,19.50
2012,07,17,00,31,19.50
2012,07,17,00,32,19.50
2012,07,17,00,33,19.50
2012,07,17,00,34,19.50
2012,07,17,00,35,19.50
2012,07,17,00,36,19.50
2012,07,17,00,37,19.50
2012,07,17,00,38,19.40
2012,07,17,00,39,19.50
2012,07,17,00,40,19.40
2012,07,17,00,41,19.50
2012,07,17,00,42,19.40
2012,07,17,00,43,19.40
2012,07,17,00,44,19.50
2012,07,17,00,45,19.50
2012,07,17,00,46,19.50
2012,07,17,00,47,19.50
2012,07,17,00,48,19.50
2012,07,17,00,49,19.50
2012,07,17,00,50,19.50
2012,07,17,00,51,19.50
2012,07,17,00,52,19.60
2012,07,17,00,53,19.50
2012,07,17,00,54,19.50
2012,07,17,00,55,19.50
2012,07,17,00,56,19.50
2012,07,17,00,57,19.50
2012,07,17,00,58,19.40
2012,07,17,00,59,19.40
2012,07,17,01,00,19.40
2012,07,17,01,01,19.30
2012,07,17,01,02,19.30
2012,07,17,01,03,19.20
2012,07,17,01,04,19.20
2012,07,17,01,05,19.10
2012,07,17,01,06,19.10
2012,07,17,01,07,19.00
2012,07,17,01,08,19.00
2012,07,17,01,09,18.90
2012,07,17,01,10,18.90
2012,07,17,01,11,18.80
2012,07,17,01,12,18.80
2012,07,17,01,13,18.70
2012,07,17,01,14,18.70
2012,07,17,01,15,18.70
2012,07,17,01,16,18.60
2012,07,17,01,17,18.60
2012,07,17,01,18,18.50
2012,07,17,01,19,18.50
2012,07,17,01,20,18.50
2012,07,17,01,21,18.40
2012,07,17,01,22,18.40
2012,07,17,01,23,18.40
2012,07,17,01,24,18.30
2012,07,17,01,25,18.30
2012,07,17,01,26,18.30
2012,07,17,01,27,18.30
2012,07,17,01,28,18.30
2012,07,17,01,29,18.20
2012,07,17,01,30,18.20
2012,07,17,01,31,18.20
2012,07,17,01,32,18.20
2012,07,17,01,33,18.20
2012,07,17,01,34,18.20
2012,07,17,01,35,18.10
2012,07,17,01,36,18.10
2012,07,17,01,37,18.10
2012,07,17,01,38,18.10
2012,07,17,01,39,18.10
2012,07,17,01,40,18.10
2012,07,17,01,41,18.10
2012,07,17,01,42,18.00
2012,07,17,01,43,18.00
2012,07,17,01,44,18.00
2012,07,17,01,45,17.90
2012,07,17,01,46,17.90
2012,07,17,01,47,17.90
2012,07,17,01,48,17.90
2012,07,17,01,49,17.90
2012,07,17,01,50,17.90
2012,07,17,01,51,17.90
2012,07,17,01,52,17.80
2012,07,17,01,53,17.80
2012,07,17,01,54,17.80
2012,07,17,01,55,17.80
2012,07,17,01,56,17.80
2012,07,17,01,57,17.80
2012,07,17,01,58,17.80
2012,07,17,01,59,17.80
2012,07,17,02,00,17.70
2012,07,17,02,01,17.70
2012,07,17,02,02,17.70
2012,07,17,02,03,17.70
2012,07,17,02,04,17.70
2012,07,17,02,05,17.70
2012,07,17,02,06,17.70
2012,07,17,02,07,17.70
2012,07,17,02,08,17.70
2012,07,17,02,09,17.70
2012,07,17,02,10,17.70
2012,07,17,02,11,17.70
2012,07,17,02,12,17.70
2012,07,17,02,13,17.70
2012,07,17,02,14,17.70
2012,07,17,02,15,17.70
2012,07,17,02,16,17.80
2012,07,17,02,17,17.80
2012,07,17,02,18,17.80
2012,07,17,02,19,17.80
2012,07,17,02,20,17.90
2012,07,17,02,21,17.90
2012,07,17,02,22,17.90
2012,07,17,02,23,17.90
2012,07,17,02,24,18.00
2012,07,17,02,25,18.00
2012,07,17,02,26,17.90
2012,07,17,02,27,17.90
2012,07,17,02,28,17.90
2012,07,17,02,29,17.90
2012,07,17,02,30,17.90
2012,07,17,02,31,17.90
2012,07,17,02,32,17.90
2012,07,17,02,33,17.90
2012,07,17,02,34,17.90
2012,07,17,02,35,17.90
2012,07,17,02,36,17.90
2012,07,17,02,37,17.90
2012,07,17,02,38,17.80
2012,07,17,02,39,17.80
2012,07,17,02,40,17.80
2012,07,17,02,41,17.80
2012,07,17,02,42,17.80
2012,07,17,02,43,17.80
2012,07,17,02,44,17.80
2012,07,17,02,45,17.80
2012,07,17,02,46,17.80
2012,07,17,02,47,17.70
2012,07,17,02,48,17.70
2012,07,17,02,49,17.70
2012,07,17,02,50,17.70
2012,07,17,02,51,17.70
2012,07,17,02,52,17.60
2012,07,17,02,53,17.60
2012,07,17,02,54,17.60
2012,07,17,02,55,17.50
2012,07,17,02,56,17.50
2012,07,17,02,57,17.50
2012,07,17,02,58,17.40
2012,07,17,02,59,17.40
2012,07,17,03,00,17.40
2012,07,17,03,01,17.30
2012,07,17,03,02,17.30
2012,07,17,03,03,17.30
2012,07,17,03,04,17.30
2012,07,17,03,05,17.20
2012,07,17,03,06,17.20
2012,07,17,03,07,17.20
2012,07,17,03,08,17.10
2012,07,17,03,09,17.10
2012,07,17,03,10,17.10
2012,07,17,03,11,17.10
2012,07,17,03,12,17.00
2012,07,17,03,13,17.00
2012,07,17,03,14,17.00
2012,07,17,03,15,16.90
2012,07,17,03,16,16.90
2012,07,17,03,17,16.90
2012,07,17,03,18,16.90
2012,07,17,03,19,16.90
2012,07,17,03,20,16.90
2012,07,17,03,21,16.90
2012,07,17,03,22,16.90
2012,07,17,03,23,16.90
2012,07,17,03,24,16.90
2012,07,17,03,25,16.90
2012,07,17,03,26,16.90
2012,07,17,03,27,16.90
2012,07,17,03,28,16.90
2012,07,17,03,29,16.90
2012,07,17,03,30,16.90
2012,07,17,03,31,16.90
2012,07,17,03,32,16.90
2012,07,17,03,33,16.90
2012,07,17,03,34,16.90
2012,07,17,03,35,16.90
2012,07,17,03,36,16.90
2012,07,17,03,37,16.90
2012,07,17,03,38,16.90
2012,07,17,03,39,16.90
2012,07,17,03,40,16.90
2012,07,17,03,41,16.90
2012,07,17,03,42,16.90
2012,07,17,03,43,16.80
2012,07,17,03,44,16.80
2012,07,17,03,45,16.80
2012,07,17,03,46,16.80
2012,07,17,03,47,16.80
2012,07,17,03,48,16.80
2012,07,17,03,49,16.70
2012,07,17,03,50,16.70
2012,07,17,03,51,16.70
2012,07,17,03,52,16.70
2012,07,17,03,53,16.70
2012,07,17,03,54,16.60
2012,07,17,03,55,16.60
2012,07,17,03,56,16.60
2012,07,17,03,57,16.60
2012,07,17,03,58,16.60
2012,07,17,03,59,16.60
2012,07,17,04,00,16.60
2012,07,17,04,01,16.50
2012,07,17,04,02,16.50
2012,07,17,04,03,16.50
2012,07,17,04,04,16.50
2012,07,17,04,05,16.50
2012,07,17,04,06,16.40
2012,07,17,04,07,16.40
2012,07,17,04,08,16.40
2012,07,17,04,09,16.40
2012,07,17,04,10,16.40
2012,07,17,04,11,16.40
2012,07,17,04,12,16.40
2012,07,17,04,13,16.40
2012,07,17,04,14,16.40
2012,07,17,04,15,16.40
2012,07,17,04,16,16.40
2012,07,17,04,17,16.40
2012,07,17,04,18,16.40
2012,07,17,04,19,16.40
2012,07,17,04,20,16.40
2012,07,17,04,21,16.40
2012,07,17,04,22,16.40
2012,07,17,04,23,16.40
2012,07,17,04,24,16.40
2012,07,17,04,25,16.40
2012,07,17,04,26,16.40
2012,07,17,04,27,16.40
2012,07,17,04,28,16.40
2012,07,17,04,29,16.50
2012,07,17,04,30,16.50
2012,07,17,04,31,16.50
2012,07,17,04,32,16.50
2012,07,17,04,33,16.50
2012,07,17,04,34,16.60
2012,07,17,04,35,16.60
2012,07,17,04,36,16.60
2012,07,17,04,37,16.60
2012,07,17,04,38,16.60
2012,07,17,04,39,16.60
2012,07,17,04,40,16.60
2012,07,17,04,41,16.60
2012,07,17,04,42,16.60
2012,07,17,04,43,16.60
2012,07,17,04,44,16.60
2012,07,17,04,45,16.60
2012,07,17,04,46,16.50
2012,07,17,04,47,16.50
2012,07,17,04,48,16.50
2012,07,17,04,49,16.50
2012,07,17,04,50,16.40
2012,07,17,04,51,16.40
2012,07,17,04,52,16.40
2012,07,17,04,53,16.40
2012,07,17,04,54,16.40
2012,07,17,04,55,16.40
2012,07,17,04,56,16.30
2012,07,17,04,57,16.30
2012,07,17,04,58,16.30
2012,07,17,04,59,16.30
2012,07,17,05,00,16.30
2012,07,17,05,01,16.30
2012,07,17,05,02,16.30
2012,07,17,05,03,16.30
2012,07,17,05,04,16.20
2012,07,17,05,05,16.20
2012,07,17,05,06,16.20
2012,07,17,05,07,16.20
2012,07,17,05,08,16.20
2012,07,17,05,09,16.20
2012,07,17,05,10,16.20
2012,07,17,05,11,16.20
2012,07,17,05,12,16.20
2012,07,17,05,13,16.20
2012,07,17,05,14,16.20
2012,07,17,05,15,16.20
2012,07,17,05,16,16.20
2012,07,17,05,17,16.20
2012,07,17,05,18,16.20
2012,07,17,05,19,16.10
2012,07,17,05,20,16.10
2012,07,17,05,21,16.10
2012,07,17,05,22,16.10
2012,07,17,05,23,16.10
2012,07,17,05,24,16.10
2012,07,17,05,25,16.10
2012,07,17,05,26,16.10
2012,07,17,05,27,16.10
2012,07,17,05,28,16.10
2012,07,17,05,29,16.10
2012,07,17,05,30,16.10
2012,07,17,05,31,16.10
2012,07,17,05,32,16.10
2012,07,17,05,33,16.10
2012,07,17,05,34,16.10
2012,07,17,05,35,16.00
2012,07,17,05,36,16.00
2012,07,17,05,37,16.00
2012,07,17,05,38,16.00
2012,07,17,05,39,16.00
2012,07,17,05,40,16.00
2012,07,17,05,41,16.00
2012,07,17,05,42,15.90
2012,07,17,05,43,15.90
2012,07,17,05,44,15.90
2012,07,17,05,45,15.90
2012,07,17,05,46,15.90
2012,07,17,05,47,15.90
2012,07,17,05,48,15.90
2012,07,17,05,49,15.90
2012,07,17,05,50,15.90
2012,07,17,05,51,15.90
2012,07,17,05,52,15.90
2012,07,17,05,53,15.90
2012,07,17,05,54,15.90
2012,07,17,05,55,15.90
2012,07,17,05,56,15.90
2012,07,17,05,57,15.90
2012,07,17,05,58,15.90
2012,07,17,05,59,15.90
2012,07,17,06,00,15.90
2012,07,17,06,01,15.90
2012,07,17,06,02,15.90
2012,07,17,06,03,15.90
2012,07,17,06,04,16.00
2012,07,17,06,05,16.00
2012,07,17,06,06,16.00
2012,07,17,06,07,16.00
2012,07,17,06,08,16.00
2012,07,17,06,09,16.00
2012,07,17,06,10,16.00
2012,07,17,06,11,16.00
2012,07,17,06,12,16.00
2012,07,17,06,13,16.00
2012,07,17,06,14,16.00
2012,07,17,06,15,16.00
2012,07,17,06,16,16.00
2012,07,17,06,17,16.00
2012,07,17,06,18,16.00
2012,07,17,06,19,16.00
2012,07,17,06,20,16.00
2012,07,17,06,21,16.00
2012,07,17,06,22,16.00
2012,07,17,06,23,16.00
2012,07,17,06,24,16.00
2012,07,17,06,25,16.10
2012,07,17,06,26,16.10
2012,07,17,06,27,16.10
2012,07,17,06,28,16.10
2012,07,17,06,29,16.10
2012,07,17,06,30,16.10
2012,07,17,06,31,16.10
2012,07,17,06,32,16.10
2012,07,17,06,33,16.10
2012,07,17,06,34,16.10
2012,07,17,06,35,16.10
2012,07,17,06,36,16.10
2012,07,17,06,37,16.10
2012,07,17,06,38,16.10
2012,07,17,06,39,16.10
2012,07,17,06,40,16.10
2012,07,17,06,41,16.10
2012,07,17,06,42,16.10
2012,07,17,06,43,16.10
2012,07,17,06,44,16.10
2012,07,17,06,45,16.10
2012,07,17,06,46,16.20
2012,07,17,06,47,16.20
2012,07,17,06,48,16.20
2012,07,17,06,49,16.20
2012,07,17,06,50,16.20
2012,07,17,06,51,16.20
2012,07,17,06,52,16.20
2012,07,17,06,53,16.20
2012,07,17,06,54,16.20
2012,07,17,06,55,16.20
2012,07,17,06,56,16.20
2012,07,17,06,57,16.30
2012,07,17,06,58,16.30
2012,07,17,06,59,16.30
2012,07,17,07,00,16.30
2012,07,17,07,01,16.30
2012,07,17,07,02,16.30
2012,07,17,07,03,16.40
2012,07,17,07,04,16.40
2012,07,17,07,05,16.40
2012,07,17,07,06,16.40
2012,07,17,07,07,16.40
2012,07,17,07,08,16.40
2012,07,17,07,09,16.50
2012,07,17,07,10,16.50
2012,07,17,07,11,16.50
2012,07,17,07,12,16.50
2012,07,17,07,13,16.50
2012,07,17,07,14,16.50
2012,07,17,07,15,16.60
2012,07,17,07,16,16.60
2012,07,17,07,17,16.60
2012,07,17,07,18,16.60
2012,07,17,07,19,16.60
2012,07,17,07,20,16.60
2012,07,17,07,21,16.60
2012,07,17,07,22,16.70
2012,07,17,07,23,16.70
2012,07,17,07,24,16.70
2012,07,17,07,25,16.70
2012,07,17,07,26,16.70
2012,07,17,07,27,16.80
2012,07,17,07,28,16.80
2012,07,17,07,29,16.80
2012,07,17,07,30,16.90
2012,07,17,07,31,16.90
2012,07,17,07,32,16.90
2012,07,17,07,33,17.00
2012,07,17,07,34,17.00
2012,07,17,07,35,17.10
2012,07,17,07,36,17.10
2012,07,17,07,37,17.20
2012,07,17,07,38,17.30
2012,07,17,07,39,17.30
2012,07,17,07,40,17.40
2012,07,17,07,41,17.40
2012,07,17,07,42,17.50
2012,07,17,07,43,17.60
2012,07,17,07,44,17.60
2012,07,17,07,45,17.70
2012,07,17,07,46,17.70
2012,07,17,07,47,17.80
2012,07,17,07,48,17.80
2012,07,17,07,49,17.90
2012,07,17,07,50,18.00
2012,07,17,07,51,18.00
2012,07,17,07,52,18.10
2012,07,17,07,53,18.20
2012,07,17,07,54,18.20
2012,07,17,07,55,18.30
2012,07,17,07,56,18.30
2012,07,17,07,57,18.40
2012,07,17,07,58,18.40
2012,07,17,07,59,18.50
2012,07,17,08,00,18.60
2012,07,17,08,01,18.60
2012,07,17,08,02,18.70
2012,07,17,08,03,18.80
2012,07,17,08,04,18.80
2012,07,17,08,05,18.90
2012,07,17,08,06,18.90
2012,07,17,08,07,19.00
2012,07,17,08,08,19.10
2012,07,17,08,09,19.10
2012,07,17,08,10,19.20
2012,07,17,08,11,19.30
2012,07,17,08,12,19.30
2012,07,17,08,13,19.40
2012,07,17,08,14,19.40
2012,07,17,08,15,19.50
2012,07,17,08,16,19.60
2012,07,17,08,17,19.60
2012,07,17,08,18,19.70
2012,07,17,08,19,19.70
2012,07,17,08,20,19.80
2012,07,17,08,21,19.80
2012,07,17,08,22,19.90
2012,07,17,08,23,20.00
2012,07,17,08,24,20.00
2012,07,17,08,25,20.10
2012,07,17,08,26,20.10
2012,07,17,08,27,20.20
2012,07,17,08,28,20.30
2012,07,17,08,29,20.30
2012,07,17,08,30,20.40
2012,07,17,08,31,20.50
2012,07,17,08,32,20.60
2012,07,17,08,33,20.60
2012,07,17,08,34,20.70
2012,07,17,08,35,20.70
2012,07,17,08,36,20.80
2012,07,17,08,37,20.90
2012,07,17,08,38,20.90
2012,07,17,08,39,21.00
2012,07,17,08,40,21.10
2012,07,17,08,41,21.20
2012,07,17,08,42,21.20
2012,07,17,08,43,21.30
2012,07,17,08,44,21.40
2012,07,17,08,45,21.40
2012,07,17,08,46,21.40
2012,07,17,08,47,21.50
2012,07,17,08,48,21.60
2012,07,17,08,49,21.60
2012,07,17,08,50,21.70
2012,07,17,08,51,21.70
2012,07,17,08,52,21.70
2012,07,17,08,53,21.70
2012,07,17,08,54,21.70
2012,07,17,08,55,21.70
2012,07,17,08,56,21.70
2012,07,17,08,57,21.70
2012,07,17,08,58,21.70
2012,07,17,08,59,21.70
2012,07,17,09,00,21.70
2012,07,17,09,01,21.70
2012,07,17,09,02,21.70
2012,07,17,09,03,21.70
2012,07,17,09,04,21.70
2012,07,17,09,05,21.70
2012,07,17,09,06,21.70
2012,07,17,09,07,21.70
2012,07,17,09,08,21.70
2012,07,17,09,09,21.80
2012,07,17,09,10,21.80
2012,07,17,09,11,21.80
2012,07,17,09,12,21.80
2012,07,17,09,13,21.80
2012,07,17,09,14,21.90
2012,07,17,09,15,21.90
2012,07,17,09,16,22.00
2012,07,17,09,17,22.00
2012,07,17,09,18,22.00
2012,07,17,09,19,22.10
2012,07,17,09,20,22.10
2012,07,17,09,21,22.10
2012,07,17,09,22,22.10
2012,07,17,09,23,22.10
2012,07,17,09,24,22.10
2012,07,17,09,25,22.10
2012,07,17,09,26,22.10
2012,07,17,09,27,22.20
2012,07,17,09,28,22.10
2012,07,17,09,29,22.10
2012,07,17,09,30,22.10
2012,07,17,09,31,22.00
2012,07,17,09,32,22.00
2012,07,17,09,33,21.90
2012,07,17,09,34,21.90
2012,07,17,09,35,21.90
2012,07,17,09,36,21.80
2012,07,17,09,37,21.80
2012,07,17,09,38,21.90
2012,07,17,09,39,21.90
2012,07,17,09,40,21.90
2012,07,17,09,41,21.90
2012,07,17,09,42,21.90
2012,07,17,09,43,21.90
2012,07,17,09,44,21.90
2012,07,17,09,45,21.90
2012,07,17,09,46,21.90
2012,07,17,09,47,21.80
2012,07,17,09,48,21.80
2012,07,17,09,49,21.90
2012,07,17,09,50,21.90
2012,07,17,09,51,21.90
2012,07,17,09,52,21.90
2012,07,17,09,53,21.90
2012,07,17,09,54,22.00
2012,07,17,09,55,22.00
2012,07,17,09,56,22.00
2012,07,17,09,57,22.00
2012,07,17,09,58,22.00
2012,07,17,09,59,22.00
2012,07,17,10,00,22.00
2012,07,17,10,01,22.00
2012,07,17,10,02,22.00
2012,07,17,10,03,22.00
2012,07,17,10,04,22.00
2012,07,17,10,05,22.00
2012,07,17,10,06,22.00
2012,07,17,10,07,21.90
2012,07,17,10,08,21.90
2012,07,17,10,09,21.90
2012,07,17,10,10,21.90
2012,07,17,10,11,21.90
2012,07,17,10,12,21.90
2012,07,17,10,13,21.90
2012,07,17,10,14,21.90
2012,07,17,10,15,21.90
2012,07,17,10,16,21.90
2012,07,17,10,17,21.90
2012,07,17,10,18,22.00
2012,07,17,10,19,22.00
2012,07,17,10,20,22.00
2012,07,17,10,21,22.00
2012,07,17,10,22,22.00
2012,07,17,10,23,22.00
2012,07,17,10,24,22.10
2012,07,17,10,25,22.00
2012,07,17,10,26,22.00
2012,07,17,10,27,22.10
2012,07,17,10,28,22.10
2012,07,17,10,29,22.10
2012,07,17,10,30,22.10
2012,07,17,10,31,22.10
2012,07,17,10,32,22.10
2012,07,17,10,33,22.20
2012,07,17,10,34,22.10
2012,07,17,10,35,22.10
2012,07,17,10,36,22.10
2012,07,17,10,37,22.10
2012,07,17,10,38,22.10
2012,07,17,10,39,22.10
2012,07,17,10,40,22.20
2012,07,17,10,41,22.20
2012,07,17,10,42,22.20
2012,07,17,10,43,22.30
2012,07,17,10,44,22.40
2012,07,17,10,45,22.40
2012,07,17,10,46,22.50
2012,07,17,10,47,22.60
2012,07,17,10,48,22.70
2012,07,17,10,49,22.70
2012,07,17,10,50,22.80
2012,07,17,10,51,22.80
2012,07,17,10,52,22.80
2012,07,17,10,53,22.90
2012,07,17,10,54,22.90
2012,07,17,10,55,22.90
2012,07,17,10,56,22.90
2012,07,17,10,57,22.90
2012,07,17,10,58,23.00
2012,07,17,10,59,23.00
2012,07,17,11,00,23.10
2012,07,17,11,01,23.10
2012,07,17,11,02,23.10
2012,07,17,11,03,23.10
2012,07,17,11,04,23.20
2012,07,17,11,05,23.20
2012,07,17,11,06,23.20
2012,07,17,11,07,23.30
2012,07,17,11,08,23.30
2012,07,17,11,09,23.30
2012,07,17,11,10,23.30
2012,07,17,11,11,23.30
2012,07,17,11,12,23.30
2012,07,17,11,13,23.30
2012,07,17,11,14,23.30
2012,07,17,11,15,23.40
2012,07,17,11,16,23.40
2012,07,17,11,17,23.50
2012,07,17,11,18,23.50
2012,07,17,11,19,23.60
2012,07,17,11,20,23.70
2012,07,17,11,21,23.70
2012,07,17,11,22,23.80
2012,07,17,11,23,23.90
2012,07,17,11,24,24.00
2012,07,17,11,25,24.00
2012,07,17,11,26,24.10
2012,07,17,11,27,24.10
2012,07,17,11,28,24.10
2012,07,17,11,29,24.10
2012,07,17,11,30,24.20
2012,07,17,11,31,24.30
2012,07,17,11,32,24.30
2012,07,17,11,33,24.40
2012,07,17,11,34,24.40
2012,07,17,11,35,24.50
2012,07,17,11,36,24.50
2012,07,17,11,37,24.50
2012,07,17,11,38,24.50
2012,07,17,11,39,24.60
2012,07,17,11,40,24.60
2012,07,17,11,41,24.60
2012,07,17,11,42,24.70
2012,07,17,11,43,24.70
2012,07,17,11,44,24.80
2012,07,17,11,45,24.80
2012,07,17,11,46,24.80
2012,07,17,11,47,24.80
2012,07,17,11,48,24.80
2012,07,17,11,49,24.80
2012,07,17,11,50,24.80
2012,07,17,11,51,24.80
2012,07,17,11,52,24.90
2012,07,17,11,53,24.90
2012,07,17,11,54,25.00
2012,07,17,11,55,25.00
2012,07,17,11,56,24.90
2012,07,17,11,57,24.90
2012,07,17,11,58,24.90
2012,07,17,11,59,25.00
2012,07,17,12,00,25.00
2012,07,17,12,01,25.10
2012,07,17,12,02,25.10
2012,07,17,12,03,25.10
2012,07,17,12,04,25.00
2012,07,17,12,05,25.00
2012,07,17,12,06,24.90
2012,07,17,12,07,24.90
2012,07,17,12,08,24.90
2012,07,17,12,09,25.00
2012,07,17,12,10,25.00
2012,07,17,12,11,25.00
2012,07,17,12,12,25.00
2012,07,17,12,13,25.10
2012,07,17,12,14,25.00
2012,07,17,12,15,25.00
2012,07,17,12,16,25.00
2012,07,17,12,17,25.00
2012,07,17,12,18,25.00
2012,07,17,12,19,24.90
2012,07,17,12,20,24.90
2012,07,17,12,21,24.90
2012,07,17,12,22,24.90
2012,07,17,12,23,24.90
2012,07,17,12,24,24.80
2012,07,17,12,25,24.70
2012,07,17,12,26,24.70
2012,07,17,12,27,24.60
2012,07,17,12,28,24.60
2012,07,17,12,29,24.50
2012,07,17,12,30,24.40
2012,07,17,12,31,24.40
2012,07,17,12,32,24.40
2012,07,17,12,33,24.30
2012,07,17,12,34,24.30
2012,07,17,12,35,24.30
2012,07,17,12,36,24.20
2012,07,17,12,37,24.10
2012,07,17,12,38,24.00
2012,07,17,12,39,23.90
2012,07,17,12,40,23.80
2012,07,17,12,41,23.80
2012,07,17,12,42,23.70
2012,07,17,12,43,23.70
2012,07,17,12,44,23.70
2012,07,17,12,45,23.70
2012,07,17,12,46,23.70
2012,07,17,12,47,23.60
2012,07,17,12,48,23.60
2012,07,17,12,49,23.60
2012,07,17,12,50,23.60
2012,07,17,12,51,23.60
2012,07,17,12,52,23.70
2012,07,17,12,53,23.70
2012,07,17,12,54,23.70
2012,07,17,12,55,23.70
2012,07,17,12,56,23.70
2012,07,17,12,57,23.70
2012,07,17,12,58,23.80
2012,07,17,12,59,23.80
2012,07,17,13,00,23.80
2012,07,17,13,01,23.80
2012,07,17,13,02,23.90
2012,07,17,13,03,23.90
2012,07,17,13,04,23.90
2012,07,17,13,05,24.00
2012,07,17,13,06,23.90
2012,07,17,13,07,23.90
2012,07,17,13,08,23.90
2012,07,17,13,09,23.80
2012,07,17,13,10,23.80
2012,07,17,13,11,23.70
2012,07,17,13,12,23.60
2012,07,17,13,13,23.50
2012,07,17,13,14,23.40
2012,07,17,13,15,23.40
2012,07,17,13,16,23.30
2012,07,17,13,17,23.20
2012,07,17,13,18,23.10
2012,07,17,13,19,22.90
2012,07,17,13,20,22.90
2012,07,17,13,21,22.80
2012,07,17,13,22,22.70
2012,07,17,13,23,22.60
2012,07,17,13,24,22.60
2012,07,17,13,25,22.60
2012,07,17,13,26,22.60
2012,07,17,13,27,22.60
2012,07,17,13,28,22.60
2012,07,17,13,29,22.70
2012,07,17,13,30,22.70
2012,07,17,13,31,22.70
2012,07,17,13,32,22.70
2012,07,17,13,33,22.80
2012,07,17,13,34,22.80
2012,07,17,13,35,22.80
2012,07,17,13,36,22.90
2012,07,17,13,37,22.90
2012,07,17,13,38,22.90
2012,07,17,13,39,23.00
2012,07,17,13,40,23.00
2012,07,17,13,41,23.10
2012,07,17,13,42,23.10
2012,07,17,13,43,23.10
2012,07,17,13,44,23.10
2012,07,17,13,45,23.20
2012,07,17,13,46,23.20
2012,07,17,13,47,23.30
2012,07,17,13,48,23.30
2012,07,17,13,49,23.30
2012,07,17,13,50,23.40
2012,07,17,13,51,23.40
2012,07,17,13,52,23.40
2012,07,17,13,53,23.40
2012,07,17,13,54,23.40
2012,07,17,13,55,23.40
2012,07,17,13,56,23.40
2012,07,17,13,57,23.40
2012,07,17,13,58,23.40
2012,07,17,13,59,23.40
2012,07,17,14,00,23.40
2012,07,17,14,01,23.40
2012,07,17,14,02,23.40
2012,07,17,14,03,23.50
2012,07,17,14,04,23.50
2012,07,17,14,05,23.50
2012,07,17,14,06,23.50
2012,07,17,14,07,23.60
2012,07,17,14,08,23.50
2012,07,17,14,09,23.40
2012,07,17,14,10,23.40
2012,07,17,14,11,23.30
2012,07,17,14,12,23.30
2012,07,17,14,13,23.30
2012,07,17,14,14,23.30
2012,07,17,14,15,23.30
2012,07,17,14,16,23.20
2012,07,17,14,17,23.20
2012,07,17,14,18,23.20
2012,07,17,14,19,23.20
2012,07,17,14,20,23.20
2012,07,17,14,21,23.20
2012,07,17,14,22,23.10
2012,07,17,14,23,23.10
2012,07,17,14,24,23.00
2012,07,17,14,25,23.00
2012,07,17,14,26,23.00
2012,07,17,14,27,22.90
2012,07,17,14,28,22.90
2012,07,17,14,29,22.80
2012,07,17,14,30,22.80
2012,07,17,14,31,22.70
2012,07,17,14,32,22.70
2012,07,17,14,33,22.60
2012,07,17,14,34,22.60
2012,07,17,14,35,22.60
2012,07,17,14,36,22.60
2012,07,17,14,37,22.60
2012,07,17,14,38,22.60
2012,07,17,14,39,22.50
2012,07,17,14,40,22.50
2012,07,17,14,41,22.60
2012,07,17,14,42,22.60
2012,07,17,14,43,22.60
2012,07,17,14,44,22.60
2012,07,17,14,45,22.70
2012,07,17,14,46,22.70
2012,07,17,14,47,22.70
2012,07,17,14,48,22.70
2012,07,17,14,49,22.70
2012,07,17,14,50,22.70
2012,07,17,14,51,22.70
2012,07,17,14,52,22.70
2012,07,17,14,53,22.70
2012,07,17,14,54,22.70
2012,07,17,14,55,22.70
2012,07,17,14,56,22.70
2012,07,17,14,57,22.70
2012,07,17,14,58,22.70
2012,07,17,14,59,22.70
2012,07,17,15,00,22.70
2012,07,17,15,01,22.70
2012,07,17,15,02,22.70
2012,07,17,15,03,22.70
2012,07,17,15,04,22.70
2012,07,17,15,05,22.70
2012,07,17,15,06,22.70
2012,07,17,15,07,22.70
2012,07,17,15,08,22.70
2012,07,17,15,09,22.70
2012,07,17,15,10,22.70
2012,07,17,15,11,22.70
2012,07,17,15,12,22.80
2012,07,17,15,13,22.80
2012,07,17,15,14,22.80
2012,07,17,15,15,22.80
2012,07,17,15,16,22.80
2012,07,17,15,17,22.80
2012,07,17,15,18,22.80
2012,07,17,15,19,22.90
2012,07,17,15,20,22.90
2012,07,17,15,21,22.90
2012,07,17,15,22,22.90
2012,07,17,15,23,22.90
2012,07,17,15,24,22.90
2012,07,17,15,25,22.90
2012,07,17,15,26,23.00
2012,07,17,15,27,23.00
2012,07,17,15,28,23.00
2012,07,17,15,29,23.10
2012,07,17,15,30,23.10
2012,07,17,15,31,23.10
2012,07,17,15,32,23.10
2012,07,17,15,33,23.10
2012,07,17,15,34,23.10
2012,07,17,15,35,23.10
2012,07,17,15,36,23.10
2012,07,17,15,37,23.10
2012,07,17,15,38,23.10
2012,07,17,15,39,23.10
2012,07,17,15,40,23.10
2012,07,17,15,41,23.10
2012,07,17,15,42,23.20
2012,07,17,15,43,23.20
2012,07,17,15,44,23.20
2012,07,17,15,45,23.20
2012,07,17,15,46,23.20
2012,07,17,15,47,23.20
2012,07,17,15,48,23.20
2012,07,17,15,49,23.20
2012,07,17,15,50,23.20
2012,07,17,15,51,23.20
2012,07,17,15,52,23.20
2012,07,17,15,53,23.20
2012,07,17,15,54,23.20
2012,07,17,15,55,23.20
2012,07,17,15,56,23.20
2012,07,17,15,57,23.20
2012,07,17,15,58,23.20
2012,07,17,15,59,23.20
2012,07,17,16,00,23.20
2012,07,17,16,01,23.20
2012,07,17,16,02,23.20
2012,07,17,16,03,23.20
2012,07,17,16,04,23.20
2012,07,17,16,05,23.20
2012,07,17,16,06,23.20
2012,07,17,16,07,23.20
2012,07,17,16,08,23.20
2012,07,17,16,09,23.20
2012,07,17,16,10,23.30
2012,07,17,16,11,23.30
2012,07,17,16,12,23.30
2012,07,17,16,13,23.30
2012,07,17,16,14,23.30
2012,07,17,16,15,23.30
2012,07,17,16,16,23.30
2012,07,17,16,17,23.30
2012,07,17,16,18,23.40
2012,07,17,16,19,23.40
2012,07,17,16,20,23.40
2012,07,17,16,21,23.40
2012,07,17,16,22,23.40
2012,07,17,16,23,23.40
2012,07,17,16,24,23.40
2012,07,17,16,25,23.40
2012,07,17,16,26,23.40
2012,07,17,16,27,23.40
2012,07,17,16,28,23.40
2012,07,17,16,29,23.40
2012,07,17,16,30,23.40
2012,07,17,16,31,23.50
2012,07,17,16,32,23.50
2012,07,17,16,33,23.50
2012,07,17,16,34,23.50
2012,07,17,16,35,23.50
2012,07,17,16,36,23.50
2012,07,17,16,37,23.50
2012,07,17,16,38,23.50
2012,07,17,16,39,23.50
2012,07,17,16,40,23.50
2012,07,17,16,41,23.50
2012,07,17,16,42,23.50
2012,07,17,16,43,23.50
2012,07,17,16,44,23.50
2012,07,17,16,45,23.40
2012,07,17,16,46,23.40
2012,07,17,16,47,23.40
2012,07,17,16,48,23.40
2012,07,17,16,49,23.40
2012,07,17,16,50,23.50
2012,07,17,16,51,23.50
2012,07,17,16,52,23.50
2012,07,17,16,53,23.50
2012,07,17,16,54,23.50
2012,07,17,16,55,23.60
2012,07,17,16,56,23.60
2012,07,17,16,57,23.60
2012,07,17,16,58,23.60
2012,07,17,16,59,23.60
2012,07,17,17,00,23.70
2012,07,17,17,01,23.70
2012,07,17,17,02,23.70
2012,07,17,17,03,23.70
2012,07,17,17,04,23.70
2012,07,17,17,05,23.80
2012,07,17,17,06,23.80
2012,07,17,17,07,23.90
2012,07,17,17,08,23.90
2012,07,17,17,09,23.90
2012,07,17,17,10,24.00
2012,07,17,17,11,24.00
2012,07,17,17,12,24.00
2012,07,17,17,13,24.00
2012,07,17,17,14,24.00
2012,07,17,17,15,24.10
2012,07,17,17,16,24.10
2012,07,17,17,17,24.10
2012,07,17,17,18,24.10
2012,07,17,17,19,24.00